Miscellaneous Local Product
Issued by NWS North Platte, NE

Home | Current Version | Previous Version | Text Only | Print | Product List | Glossary On
Versions: 1 2 3 4 5 6 7 8 9 10 11 12 13 14 15 16 17 18 19 20 21 22 23 24 25 26 27 28 29 30 31 32 33 34 35 36 37 38 39 40 41 42 43 44 45 46 47 48 49 50
000
AXUS43 KLBF 220310
MISLBF


WESTERN AND NORTH CENTRAL NEBRASKA HOURLY WEATHER ROUNDUP
NATIONAL WEATHER SERVICE NORTH PLATTE NE
900 PM CST FRI NOV 21 2014

***STATIONS NOT REPORTING VARIABLES SUCH AS SKY/WEATHER OR
PRESSURE ARE PROVIDED BY THE NEBRASKA DEPARTMENT OF
ROADS...RAWS...AND APRS NETWORKS...AND ARE NOT UNDER
NATIONAL WEATHER SERVICE QUALITY CONTROL***

...OBSERVATIONS IN AND NEAR THE EASTERN PANHANDLE OF NEBRASKA...

CITY           SKY/WX    TMP DP  RH WIND       PRES   REMARKS
PINE RIDGE     CLEAR     28  24  85 CALM      29.85F
CHADRON        CLEAR     28  24  85 W5        29.87F WCI  23
ALLIANCE       CLEAR     27  17  66 W3        29.88S
SIDNEY         CLEAR     28  17  63 W10       29.93R WCI  19
WHITECLAY        N/A     26  21  83 S6          N/A  WCI  19
LISCO            N/A     27  18  67 CALM        N/A
BIG SPRINGS      N/A     30  18  60 SW3         N/A
LEWELLEN         N/A     16   7  67 CALM        N/A
$$

...OBSERVATIONS IN NORTH CENTRAL NEBRASKA...

CITY           SKY/WX    TMP DP  RH WIND       PRES   REMARKS
VALENTINE      CLEAR     30  26  85 SW6       29.85S WCI  24
THEDFORD       CLEAR     39  29  66 SW9       29.89R WCI  33
AINSWORTH      PTCLDY    37  28  69 W6        29.87R WCI  32
O`NEILL        PTCLDY    39  33  77 S8        29.88S WCI  34
ORD            PTCLDY    37  28  70 S7        29.90F WCI  32
BROKEN BOW     CLEAR     36  27  69 SW7       29.91S WCI  30
BROWNLEE         N/A     40  24  51 SW9         N/A  WCI  34
BREWSTER         N/A     39  30  70 SW10        N/A  WCI  32
COMSTOCK         N/A     39  32  76 S10         N/A  WCI  32
$$

...OBSERVATIONS IN SOUTHWEST NEBRASKA AND FAR NORTHEAST COLORADO...

CITY           SKY/WX    TMP DP  RH WIND       PRES   REMARKS
WRAY           FAIR      34  21  58 SW7       29.92S WCI  28
HOLYOKE        FAIR      32  21  64 W10       29.92R WCI  24
IMPERIAL       PTCLDY    36  25  64 S6        29.91S WCI  31
OGALLALA       CLEAR     35  26  70 SW5       29.91S WCI  30
NORTH PLATTE   CLEAR     31  26  82 E5        29.91S WCI  26
MCCOOK         CLEAR     37  32  82 S12       29.93S WCI  29
LEXINGTON      CLEAR     36  28  74 S13       29.92F WCI  27
PAXTON           N/A     31  25  78 CALM        N/A
GOTHENBURG       N/A     38  29  70 S6          N/A  WCI  33
CALLAWAY         N/A     35  29  78 S12         N/A  WCI  27
$$

...SOME WEATHER OBSERVATIONS FROM AROUND THE REGION...

CITY           SKY/WX    TMP DP  RH WIND       PRES   REMARKS
DENVER         PTCLDY    36  24  62 SW7       29.97R WCI  30
LARAMIE        CLEAR     29  17  61 SW13      29.97S WCI  19
CHEYENNE       CLEAR     32  17  54 W7        29.95S WCI  26
SCOTTSBLUFF    CLEAR     31  20  63 N5        29.90R WCI  26
RAPID CITY     CLEAR     34  24  67 SW8       29.82F WCI  27
PIERRE         CLEAR     33  28  81 SW7       29.81S WCI  27
WINNER         FAIR      42  29  59 SW7       29.84R
SIOUX FALLS    CLOUDY    33  28  81 S9        29.88F WCI  25
OMAHA          CLOUDY    37  34  89 S15       30.03F WCI  28
GRAND ISLAND   CLOUDY    41  31  67 S13       29.96F
KANSAS CITY    CLOUDY    44  41  89 S9        30.05F
WICHITA        DRZL/FOG  45  43  93 SW9       30.04R VSB 1/8
HAYS           MOCLDY    37  30  75 SE6       29.99F WCI  33
LIBERAL        MOCLDY    39  30  70 SE7       30.01R WCI  34
GOODLAND       CLEAR     42  28  57 SW13      29.94S
$$



USA.gov is the U.S. government's official web portal to all federal, state and local government web resources and services.